Time,TemperatureF,DewpointF,PressureIn,WindDirection,WindDirectionDegrees,WindSpeedMPH,WindSpeedGustMPH,Humidity,HourlyPrecipIn,Conditions,Clouds,dailyrainin,SoftwareType,DateUTC
2013-05-29 00:00:00,58.8,55.3,30.11,East,90,0.0,-999.0,88,-99.99,,,0.00,Acu-Link.com,2013-05-29 04:00:00,
2013-05-29 00:15:00,58.8,55.6,30.10,North,0,1.7,-999.0,89,-99.99,,,0.00,Acu-Link.com,2013-05-29 04:15:00,
2013-05-29 00:31:00,58.8,55.9,30.11,South,180,0.0,-999.0,90,-99.99,,,0.00,Acu-Link.com,2013-05-29 04:31:00,
2013-05-29 00:46:00,58.6,56.0,30.10,SSW,202,1.7,-999.0,91,-99.99,,,0.00,Acu-Link.com,2013-05-29 04:46:00,
2013-05-29 01:01:00,58.5,55.9,30.09,SW,225,1.1,-999.0,91,-99.99,,,0.00,Acu-Link.com,2013-05-29 05:01:00,
2013-05-29 01:16:00,58.3,56.0,30.08,West,270,0.0,-999.0,92,-99.99,,,0.00,Acu-Link.com,2013-05-29 05:16:00,
2013-05-29 01:31:00,58.1,56.1,30.08,ENE,67,0.0,-999.0,93,-99.99,,,0.00,Acu-Link.com,2013-05-29 05:31:00,
2013-05-29 01:46:00,57.6,56.2,30.08,South,180,1.7,-999.0,95,-99.99,,,0.00,Acu-Link.com,2013-05-29 05:46:00,
2013-05-29 02:01:00,57.6,56.8,30.07,NNW,337,3.2,-999.0,97,-99.99,,,0.00,Acu-Link.com,2013-05-29 06:01:00,
2013-05-29 02:17:00,57.2,56.6,30.08,ESE,112,2.2,-999.0,98,-99.99,,,0.00,Acu-Link.com,2013-05-29 06:17:00,
2013-05-29 02:32:00,57.0,56.7,30.06,NE,45,0.0,-999.0,99,-99.99,,,0.00,Acu-Link.com,2013-05-29 06:32:00,
2013-05-29 02:47:00,57.0,56.7,30.07,NNE,22,0.0,-999.0,99,-99.99,,,0.00,Acu-Link.com,2013-05-29 06:47:00,
2013-05-29 03:02:00,57.0,56.7,30.05,North,0,0.0,-999.0,99,-99.99,,,0.00,Acu-Link.com,2013-05-29 07:02:00,
2013-05-29 03:18:00,57.0,56.7,30.04,NW,315,0.0,-999.0,99,-99.99,,,0.01,Acu-Link.com,2013-05-29 07:18:00,
2013-05-29 03:48:00,57.0,56.7,30.03,East,90,1.7,-999.0,99,-99.99,,,0.02,Acu-Link.com,2013-05-29 07:48:00,
2013-05-29 04:04:00,57.0,56.7,30.03,NE,45,0.0,-999.0,99,-99.99,,,0.05,Acu-Link.com,2013-05-29 08:04:00,
2013-05-29 04:19:00,57.0,56.7,30.03,ENE,67,0.0,-999.0,99,-99.99,,,0.05,Acu-Link.com,2013-05-29 08:19:00,
2013-05-29 04:34:00,57.0,56.7,30.02,ENE,67,0.0,-999.0,99,-99.99,,,0.05,Acu-Link.com,2013-05-29 08:34:00,
2013-05-29 04:49:00,57.0,56.7,30.02,NE,45,0.0,-999.0,99,-99.99,,,0.06,Acu-Link.com,2013-05-29 08:49:00,
2013-05-29 05:04:00,57.0,56.7,30.02,ENE,67,1.7,-999.0,99,-99.99,,,0.07,Acu-Link.com,2013-05-29 09:04:00,
2013-05-29 05:20:00,56.8,56.5,30.04,East,90,0.0,-999.0,99,-99.99,,,0.09,Acu-Link.com,2013-05-29 09:20:00,
2013-05-29 05:35:00,56.8,56.5,30.02,NE,45,2.2,-999.0,99,-99.99,,,0.14,Acu-Link.com,2013-05-29 09:35:00,
2013-05-29 05:50:00,56.8,56.5,30.04,ESE,112,2.7,-999.0,99,-99.99,,,0.27,Acu-Link.com,2013-05-29 09:50:00,
2013-05-29 06:05:00,56.8,56.5,30.03,South,180,0.0,-999.0,99,-99.99,,,0.39,Acu-Link.com,2013-05-29 10:05:00,
2013-05-29 06:20:00,56.8,56.5,30.03,East,90,2.7,-999.0,99,-99.99,,,0.49,Acu-Link.com,2013-05-29 10:20:00,
2013-05-29 06:36:00,56.8,56.5,30.03,SSW,202,0.0,-999.0,99,-99.99,,,0.53,Acu-Link.com,2013-05-29 10:36:00,
2013-05-29 06:51:00,56.8,56.5,30.04,West,270,0.0,-999.0,99,-99.99,,,0.54,Acu-Link.com,2013-05-29 10:51:00,
2013-05-29 07:06:00,57.0,56.7,30.03,SE,135,0.0,-999.0,99,-99.99,,,0.54,Acu-Link.com,2013-05-29 11:06:00,
2013-05-29 07:21:00,57.2,56.9,30.02,NNW,337,0.0,-999.0,99,-99.99,,,0.60,Acu-Link.com,2013-05-29 11:21:00,
2013-05-29 07:36:00,57.4,57.1,30.03,SW,225,0.0,-999.0,99,-99.99,,,0.67,Acu-Link.com,2013-05-29 11:36:00,
2013-05-29 07:52:00,57.7,57.4,30.02,NNE,22,1.1,-999.0,99,-99.99,,,0.68,Acu-Link.com,2013-05-29 11:52:00,
2013-05-29 08:07:00,57.9,57.6,30.02,NE,45,0.0,-999.0,99,-99.99,,,0.68,Acu-Link.com,2013-05-29 12:07:00,
2013-05-29 08:22:00,58.6,58.3,30.02,ESE,112,0.0,-999.0,99,-99.99,,,0.69,Acu-Link.com,2013-05-29 12:22:00,
2013-05-29 08:37:00,58.5,58.2,30.01,SSW,202,1.1,-999.0,99,-99.99,,,0.70,Acu-Link.com,2013-05-29 12:37:00,
2013-05-29 08:52:00,58.5,58.2,30.02,WNW,292,0.0,-999.0,99,-99.99,,,0.70,Acu-Link.com,2013-05-29 12:52:00,
2013-05-29 09:08:00,58.6,58.3,30.01,ENE,67,1.7,-999.0,99,-99.99,,,0.70,Acu-Link.com,2013-05-29 13:08:00,
2013-05-29 09:23:00,59.2,58.9,30.02,NNE,22,0.0,-999.0,99,-99.99,,,0.70,Acu-Link.com,2013-05-29 13:23:00,
2013-05-29 09:38:00,59.2,58.9,30.01,NE,45,1.7,-999.0,99,-99.99,,,0.70,Acu-Link.com,2013-05-29 13:38:00,
2013-05-29 09:53:00,59.4,59.1,30.01,ENE,67,1.7,-999.0,99,-99.99,,,0.70,Acu-Link.com,2013-05-29 13:53:00,
2013-05-29 10:08:00,60.3,60.0,30.02,East,90,1.1,-999.0,99,-99.99,,,0.70,Acu-Link.com,2013-05-29 14:08:00,
2013-05-29 10:24:00,60.3,60.0,30.01,NE,45,1.7,-999.0,99,-99.99,,,0.70,Acu-Link.com,2013-05-29 14:24:00,
2013-05-29 10:39:00,61.0,60.4,30.01,SW,225,2.7,-999.0,98,-99.99,,,0.70,Acu-Link.com,2013-05-29 14:39:00,
2013-05-29 10:54:00,60.6,60.0,30.02,NNE,22,0.0,-999.0,98,-99.99,,,0.70,Acu-Link.com,2013-05-29 14:54:00,
2013-05-29 11:09:00,61.2,60.6,30.01,ENE,67,0.0,-999.0,98,-99.99,,,0.70,Acu-Link.com,2013-05-29 15:09:00,
2013-05-29 11:25:00,62.1,61.2,30.00,North,0,0.0,-999.0,97,-99.99,,,0.70,Acu-Link.com,2013-05-29 15:25:00,
2013-05-29 11:40:00,63.1,61.9,30.00,East,90,0.0,-999.0,96,-99.99,,,0.70,Acu-Link.com,2013-05-29 15:40:00,
2013-05-29 11:55:00,64.2,62.4,29.97,ENE,67,2.2,-999.0,94,-99.99,,,0.70,Acu-Link.com,2013-05-29 15:55:00,
2013-05-29 12:10:00,63.1,61.9,29.99,SSE,157,0.0,-999.0,96,-99.99,,,0.70,Acu-Link.com,2013-05-29 16:10:00,
2013-05-29 12:25:00,63.5,62.3,29.98,SW,225,2.2,-999.0,96,-99.99,,,0.70,Acu-Link.com,2013-05-29 16:25:00,
2013-05-29 12:41:00,63.9,62.7,29.96,SE,135,0.0,-999.0,96,-99.99,,,0.70,Acu-Link.com,2013-05-29 16:41:00,
2013-05-29 12:56:00,65.5,63.4,29.96,SSW,202,0.0,-999.0,93,-99.99,,,0.70,Acu-Link.com,2013-05-29 16:56:00,
2013-05-29 13:11:00,65.5,63.1,29.94,SW,225,2.7,-999.0,92,-99.99,,,0.70,Acu-Link.com,2013-05-29 17:11:00,
2013-05-29 13:26:00,66.7,63.7,29.96,NNE,22,0.0,-999.0,90,-99.99,,,0.70,Acu-Link.com,2013-05-29 17:26:00,
2013-05-29 13:41:00,67.8,64.1,29.97,West,270,2.7,-999.0,88,-99.99,,,0.70,Acu-Link.com,2013-05-29 17:41:00,
2013-05-29 13:57:00,70.5,65.1,29.96,NNW,337,0.0,-999.0,83,-99.99,,,0.70,Acu-Link.com,2013-05-29 17:57:00,
2013-05-29 14:12:00,71.6,65.5,29.96,South,180,0.0,-999.0,81,-99.99,,,0.70,Acu-Link.com,2013-05-29 18:12:00,
2013-05-29 14:27:00,72.3,66.1,29.95,North,0,2.2,-999.0,81,-99.99,,,0.70,Acu-Link.com,2013-05-29 18:27:00,
2013-05-29 14:42:00,75.2,67.1,29.94,NE,45,0.0,-999.0,76,-99.99,,,0.70,Acu-Link.com,2013-05-29 18:42:00,
2013-05-29 14:57:00,74.7,67.7,29.95,SW,225,2.7,-999.0,79,-99.99,,,0.70,Acu-Link.com,2013-05-29 18:57:00,
2013-05-29 15:13:00,76.5,68.0,29.93,WSW,247,1.7,-999.0,75,-99.99,,,0.70,Acu-Link.com,2013-05-29 19:13:00,
2013-05-29 15:28:00,78.6,68.0,29.93,ENE,67,2.2,-999.0,70,-99.99,,,0.70,Acu-Link.com,2013-05-29 19:28:00,
2013-05-29 15:43:00,78.1,68.3,29.93,SSW,202,0.0,-999.0,72,-99.99,,,0.70,Acu-Link.com,2013-05-29 19:43:00,
2013-05-29 15:58:00,79.9,69.2,29.93,ENE,67,2.7,-999.0,70,-99.99,,,0.70,Acu-Link.com,2013-05-29 19:58:00,
2013-05-29 16:13:00,80.2,69.9,29.92,North,0,0.0,-999.0,71,-99.99,,,0.70,Acu-Link.com,2013-05-29 20:13:00,
2013-05-29 16:29:00,79.3,69.5,29.92,SW,225,2.7,-999.0,72,-99.99,,,0.70,Acu-Link.com,2013-05-29 20:29:00,
2013-05-29 16:44:00,79.0,69.6,29.93,ENE,67,0.0,-999.0,73,-99.99,,,0.70,Acu-Link.com,2013-05-29 20:44:00,
2013-05-29 16:59:00,78.6,68.4,29.93,SW,225,2.7,-999.0,71,-99.99,,,0.70,Acu-Link.com,2013-05-29 20:59:00,
2013-05-29 17:14:00,78.6,68.8,29.93,NNW,337,2.2,-999.0,72,-99.99,,,0.70,Acu-Link.com,2013-05-29 21:14:00,
2013-05-29 17:30:00,77.4,68.8,29.93,ENE,67,0.0,-999.0,75,-99.99,,,0.70,Acu-Link.com,2013-05-29 21:30:00,
2013-05-29 17:45:00,76.6,68.5,29.94,ESE,112,1.7,-999.0,76,-99.99,,,0.70,Acu-Link.com,2013-05-29 21:45:00,
2013-05-29 18:00:00,76.6,68.8,29.93,SSE,157,1.1,-999.0,77,-99.99,,,0.70,Acu-Link.com,2013-05-29 22:00:00,
2013-05-29 18:15:00,77.4,68.8,29.92,SSW,202,0.0,-999.0,75,-99.99,,,0.70,Acu-Link.com,2013-05-29 22:15:00,
2013-05-29 18:30:00,75.7,68.0,29.92,South,180,0.0,-999.0,77,-99.99,,,0.70,Acu-Link.com,2013-05-29 22:30:00,
2013-05-29 18:46:00,75.6,68.2,29.91,ENE,67,0.0,-999.0,78,-99.99,,,0.70,Acu-Link.com,2013-05-29 22:46:00,
2013-05-29 19:01:00,75.4,67.3,29.92,NNE,22,1.7,-999.0,76,-99.99,,,0.70,Acu-Link.com,2013-05-29 23:01:00,
2013-05-29 19:16:00,74.1,66.8,29.91,ENE,67,0.0,-999.0,78,-99.99,,,0.70,Acu-Link.com,2013-05-29 23:16:00,
2013-05-29 19:31:00,73.2,66.3,29.90,East,90,2.2,-999.0,79,-99.99,,,0.70,Acu-Link.com,2013-05-29 23:31:00,
2013-05-29 19:46:00,71.6,66.2,29.92,ENE,67,1.7,-999.0,83,-99.99,,,0.70,Acu-Link.com,2013-05-29 23:46:00,
2013-05-29 20:02:00,71.1,66.0,29.91,East,90,0.0,-999.0,84,-99.99,,,0.70,Acu-Link.com,2013-05-30 00:02:00,
2013-05-29 20:17:00,70.0,65.6,29.92,East,90,0.0,-999.0,86,-99.99,,,0.70,Acu-Link.com,2013-05-30 00:17:00,
2013-05-29 20:32:00,69.4,65.7,29.91,North,0,0.0,-999.0,88,-99.99,,,0.70,Acu-Link.com,2013-05-30 00:32:00,
2013-05-29 20:48:00,68.9,65.8,29.91,ENE,67,0.0,-999.0,90,-99.99,,,0.70,Acu-Link.com,2013-05-30 00:48:00,
2013-05-29 21:03:00,68.4,66.0,29.90,ENE,67,1.7,-999.0,92,-99.99,,,0.70,Acu-Link.com,2013-05-30 01:03:00,
2013-05-29 21:18:00,68.4,66.0,29.90,NNE,22,2.2,-999.0,92,-99.99,,,0.70,Acu-Link.com,2013-05-30 01:18:00,
2013-05-29 21:33:00,68.0,65.9,29.90,ENE,67,2.2,-999.0,93,-99.99,,,0.70,Acu-Link.com,2013-05-30 01:33:00,
2013-05-29 21:48:00,68.0,66.2,29.93,South,180,3.7,-999.0,94,-99.99,,,0.70,Acu-Link.com,2013-05-30 01:48:00,
2013-05-29 22:04:00,66.7,65.8,29.94,NE,45,5.3,-999.0,97,-99.99,,,0.82,Acu-Link.com,2013-05-30 02:04:00,
2013-05-29 22:19:00,66.2,65.0,29.93,East,90,6.3,-999.0,96,-99.99,,,0.83,Acu-Link.com,2013-05-30 02:19:00,
2013-05-29 22:34:00,65.5,64.6,29.95,WSW,247,3.2,-999.0,97,-99.99,,,0.85,Acu-Link.com,2013-05-30 02:34:00,
2013-05-29 22:49:00,65.1,64.2,29.97,ENE,67,2.7,-999.0,97,-99.99,,,0.88,Acu-Link.com,2013-05-30 02:49:00,
2013-05-29 23:04:00,64.6,64.0,29.95,NNW,337,0.0,-999.0,98,-99.99,,,0.97,Acu-Link.com,2013-05-30 03:04:00,
2013-05-29 23:20:00,64.4,64.1,29.96,West,270,1.1,-999.0,99,-99.99,,,1.01,Acu-Link.com,2013-05-30 03:20:00,
2013-05-29 23:35:00,64.2,63.9,29.98,NW,315,2.2,-999.0,99,-99.99,,,1.02,Acu-Link.com,2013-05-30 03:35:00,
2013-05-29 23:50:00,64.2,63.9,29.97,NNW,337,2.2,-999.0,99,-99.99,,,1.03,Acu-Link.com,2013-05-30 03:50:00,